Time,TemperatureF,DewpointF,PressureIn,WindDirection,WindDirectionDegrees,WindSpeedMPH,WindSpeedGustMPH,Humidity,HourlyPrecipIn,Conditions,Clouds,dailyrainin,SoftwareType,DateUTC
2013-01-10 00:00:00,41.0,-99.9,30.36,West,270,15.0,22.0,-999,-99.99,,,-99.99,,2013-01-10 05:00:00,
2013-01-10 00:23:00,41.0,-99.9,30.36,West,270,15.0,22.0,-999,-99.99,,,-99.99,,2013-01-10 05:23:00,
2013-01-10 00:33:00,41.0,-99.9,30.36,West,270,15.0,22.0,-999,-99.99,,,-99.99,,2013-01-10 05:33:00,
2013-01-10 00:43:00,41.0,-99.9,30.36,West,270,15.0,22.0,-999,-99.99,,,-99.99,,2013-01-10 05:43:00,
2013-01-10 00:53:00,41.0,-99.9,30.36,West,270,15.0,22.0,-999,-99.99,,,-99.99,,2013-01-10 05:53:00,
2013-01-10 01:00:00,39.0,-99.9,30.39,West,280,17.0,20.0,-999,-99.99,,,-99.99,,2013-01-10 06:00:00,
2013-01-10 01:22:00,39.0,-99.9,30.39,West,280,17.0,20.0,-999,-99.99,,,-99.99,,2013-01-10 06:22:00,
2013-01-10 01:32:00,39.0,-99.9,30.39,West,280,17.0,20.0,-999,-99.99,,,-99.99,,2013-01-10 06:32:00,
2013-01-10 01:42:00,39.0,-99.9,30.39,West,280,17.0,20.0,-999,-99.99,,,-99.99,,2013-01-10 06:42:00,
2013-01-10 01:53:00,39.0,-99.9,30.39,West,280,17.0,20.0,-999,-99.99,,,-99.99,,2013-01-10 06:53:00,
2013-01-10 02:00:00,39.0,-99.9,30.40,NW,310,20.0,28.0,-999,-99.99,,,-99.99,,2013-01-10 07:00:00,
2013-01-10 02:22:00,39.0,-99.9,30.40,NW,310,20.0,28.0,-999,-99.99,,,-99.99,,2013-01-10 07:22:00,
2013-01-10 02:32:00,39.0,-99.9,30.40,NW,310,20.0,28.0,-999,-99.99,,,-99.99,,2013-01-10 07:32:00,
2013-01-10 02:42:00,39.0,-99.9,30.40,NW,310,20.0,28.0,-999,-99.99,,,-99.99,,2013-01-10 07:42:00,
2013-01-10 02:52:00,39.0,-99.9,30.40,NW,310,20.0,28.0,-999,-99.99,,,-99.99,,2013-01-10 07:52:00,
2013-01-10 03:00:00,39.0,-99.9,30.43,WNW,290,14.0,15.0,-999,-99.99,,,-99.99,,2013-01-10 08:00:00,
2013-01-10 03:22:00,39.0,-99.9,30.43,WNW,290,14.0,15.0,-999,-99.99,,,-99.99,,2013-01-10 08:22:00,
2013-01-10 03:33:00,39.0,-99.9,30.43,WNW,290,14.0,15.0,-999,-99.99,,,-99.99,,2013-01-10 08:33:00,
2013-01-10 03:42:00,39.0,-99.9,30.43,WNW,290,14.0,15.0,-999,-99.99,,,-99.99,,2013-01-10 08:42:00,
2013-01-10 03:53:00,39.0,-99.9,30.43,WNW,290,14.0,15.0,-999,-99.99,,,-99.99,,2013-01-10 08:53:00,
2013-01-10 04:00:00,39.0,-99.9,30.45,West,260,9.0,15.0,-999,-99.99,,,-99.99,,2013-01-10 09:00:00,
2013-01-10 04:22:00,39.0,-99.9,30.45,West,260,9.0,15.0,-999,-99.99,,,-99.99,,2013-01-10 09:22:00,
2013-01-10 04:32:00,39.0,-99.9,30.45,West,260,9.0,15.0,-999,-99.99,,,-99.99,,2013-01-10 09:32:00,
2013-01-10 04:43:00,39.0,-99.9,30.45,West,260,9.0,15.0,-999,-99.99,,,-99.99,,2013-01-10 09:43:00,
2013-01-10 04:53:00,39.0,-99.9,30.45,West,260,9.0,15.0,-999,-99.99,,,-99.99,,2013-01-10 09:53:00,
2013-01-10 05:00:00,36.0,-99.9,30.46,SSW,210,8.0,11.0,-999,-99.99,,,-99.99,,2013-01-10 10:00:00,
2013-01-10 05:22:00,36.0,-99.9,30.46,SSW,210,8.0,11.0,-999,-99.99,,,-99.99,,2013-01-10 10:22:00,
2013-01-10 05:33:00,36.0,-99.9,30.46,SSW,210,8.0,11.0,-999,-99.99,,,-99.99,,2013-01-10 10:33:00,
2013-01-10 05:43:00,36.0,-99.9,30.46,SSW,210,8.0,11.0,-999,-99.99,,,-99.99,,2013-01-10 10:43:00,
2013-01-10 05:53:00,36.0,-99.9,30.46,SSW,210,8.0,11.0,-999,-99.99,,,-99.99,,2013-01-10 10:53:00,
2013-01-10 06:00:00,36.0,-99.9,30.49,SW,230,7.0,10.0,-999,-99.99,,,-99.99,,2013-01-10 11:00:00,
2013-01-10 06:23:00,36.0,-99.9,30.49,SW,230,7.0,10.0,-999,-99.99,,,-99.99,,2013-01-10 11:23:00,
2013-01-10 06:33:00,36.0,-99.9,30.49,SW,230,7.0,10.0,-999,-99.99,,,-99.99,,2013-01-10 11:33:00,
2013-01-10 06:43:00,36.0,-99.9,30.49,SW,230,7.0,10.0,-999,-99.99,,,-99.99,,2013-01-10 11:43:00,
2013-01-10 06:53:00,36.0,-99.9,30.49,SW,230,7.0,10.0,-999,-99.99,,,-99.99,,2013-01-10 11:53:00,
2013-01-10 07:00:00,36.0,-99.9,30.52,SW,230,6.0,9.0,-999,-99.99,,,-99.99,,2013-01-10 12:00:00,
2013-01-10 07:22:00,36.0,-99.9,30.52,SW,230,6.0,9.0,-999,-99.99,,,-99.99,,2013-01-10 12:22:00,
2013-01-10 07:33:00,36.0,-99.9,30.52,SW,230,6.0,9.0,-999,-99.99,,,-99.99,,2013-01-10 12:33:00,
2013-01-10 07:43:00,36.0,-99.9,30.52,SW,230,6.0,9.0,-999,-99.99,,,-99.99,,2013-01-10 12:43:00,
2013-01-10 07:53:00,36.0,-99.9,30.52,SW,230,6.0,9.0,-999,-99.99,,,-99.99,,2013-01-10 12:53:00,
2013-01-10 08:00:00,36.0,-99.9,30.56,WSW,240,6.0,8.0,-999,-99.99,,,-99.99,,2013-01-10 13:00:00,
2013-01-10 08:22:00,36.0,-99.9,30.56,WSW,240,6.0,8.0,-999,-99.99,,,-99.99,,2013-01-10 13:22:00,
2013-01-10 08:33:00,36.0,-99.9,30.56,WSW,240,6.0,8.0,-999,-99.99,,,-99.99,,2013-01-10 13:33:00,
2013-01-10 08:42:00,36.0,-99.9,30.56,WSW,240,6.0,8.0,-999,-99.99,,,-99.99,,2013-01-10 13:42:00,
2013-01-10 08:53:00,36.0,-99.9,30.56,WSW,240,6.0,8.0,-999,-99.99,,,-99.99,,2013-01-10 13:53:00,
2013-01-10 09:00:00,36.0,-99.9,30.59,WSW,240,7.0,9.0,-999,-99.99,,,-99.99,,2013-01-10 14:00:00,
2013-01-10 09:23:00,36.0,-99.9,30.59,WSW,240,7.0,9.0,-999,-99.99,,,-99.99,,2013-01-10 14:23:00,
2013-01-10 09:33:00,36.0,-99.9,30.59,WSW,240,7.0,9.0,-999,-99.99,,,-99.99,,2013-01-10 14:33:00,
2013-01-10 09:44:00,36.0,-99.9,30.59,WSW,240,7.0,9.0,-999,-99.99,,,-99.99,,2013-01-10 14:44:00,
2013-01-10 09:53:00,36.0,-99.9,30.59,WSW,240,7.0,9.0,-999,-99.99,,,-99.99,,2013-01-10 14:53:00,
2013-01-10 10:00:00,38.0,-99.9,30.59,West,260,7.0,9.0,-999,-99.99,,,-99.99,,2013-01-10 15:00:00,
2013-01-10 10:23:00,38.0,-99.9,30.59,West,260,7.0,9.0,-999,-99.99,,,-99.99,,2013-01-10 15:23:00,
2013-01-10 10:33:00,38.0,-99.9,30.59,West,260,7.0,9.0,-999,-99.99,,,-99.99,,2013-01-10 15:33:00,
2013-01-10 10:43:00,38.0,-99.9,30.59,West,260,7.0,9.0,-999,-99.99,,,-99.99,,2013-01-10 15:43:00,
2013-01-10 10:53:00,38.0,-99.9,30.59,West,260,7.0,9.0,-999,-99.99,,,-99.99,,2013-01-10 15:53:00,
2013-01-10 11:00:00,37.0,-99.9,30.58,West,280,8.0,9.0,-999,-99.99,,,-99.99,,2013-01-10 16:00:00,
2013-01-10 11:23:00,37.0,-99.9,30.58,West,280,8.0,9.0,-999,-99.99,,,-99.99,,2013-01-10 16:23:00,
2013-01-10 11:33:00,37.0,-99.9,30.58,West,280,8.0,9.0,-999,-99.99,,,-99.99,,2013-01-10 16:33:00,
2013-01-10 11:43:00,37.0,-99.9,30.58,West,280,8.0,9.0,-999,-99.99,,,-99.99,,2013-01-10 16:43:00,
2013-01-10 11:53:00,37.0,-99.9,30.58,West,280,8.0,9.0,-999,-99.99,,,-99.99,,2013-01-10 16:53:00,
2013-01-10 12:00:00,37.0,-99.9,30.56,West,280,9.0,10.0,-999,-99.99,,,-99.99,,2013-01-10 17:00:00,
2013-01-10 12:23:00,37.0,-99.9,30.56,West,280,10.0,10.0,-999,-99.99,,,-99.99,,2013-01-10 17:23:00,
2013-01-10 12:33:00,37.0,-99.9,30.56,West,280,9.0,10.0,-999,-99.99,,,-99.99,,2013-01-10 17:33:00,
2013-01-10 12:43:00,37.0,-99.9,30.56,West,280,9.0,10.0,-999,-99.99,,,-99.99,,2013-01-10 17:43:00,
2013-01-10 12:53:00,37.0,-99.9,30.56,West,280,9.0,10.0,-999,-99.99,,,-99.99,,2013-01-10 17:53:00,
2013-01-10 13:00:00,38.0,-99.9,30.54,West,280,10.0,10.0,-999,-99.99,,,-99.99,,2013-01-10 18:00:00,
2013-01-10 13:23:00,38.0,-99.9,30.54,West,280,10.0,10.0,-999,-99.99,,,-99.99,,2013-01-10 18:23:00,
2013-01-10 13:33:00,38.0,-99.9,30.54,West,280,10.0,10.0,-999,-99.99,,,-99.99,,2013-01-10 18:33:00,
2013-01-10 13:44:00,38.0,-99.9,30.54,West,280,10.0,10.0,-999,-99.99,,,-99.99,,2013-01-10 18:44:00,
2013-01-10 13:53:00,38.0,-99.9,30.54,West,280,10.0,10.0,-999,-99.99,,,-99.99,,2013-01-10 18:53:00,
2013-01-10 14:00:00,38.0,-99.9,30.53,WNW,290,8.0,9.0,-999,-99.99,,,-99.99,,2013-01-10 19:00:00,
2013-01-10 14:23:00,38.0,-99.9,30.53,WNW,290,8.0,9.0,-999,-99.99,,,-99.99,,2013-01-10 19:23:00,
2013-01-10 14:33:00,38.0,-99.9,30.53,WNW,290,8.0,9.0,-999,-99.99,,,-99.99,,2013-01-10 19:33:00,
2013-01-10 14:44:00,38.0,-99.9,30.53,WNW,290,8.0,9.0,-999,-99.99,,,-99.99,,2013-01-10 19:44:00,
2013-01-10 14:54:00,38.0,-99.9,30.53,WNW,290,8.0,9.0,-999,-99.99,,,-99.99,,2013-01-10 19:54:00,
2013-01-10 15:00:00,39.0,-99.9,30.53,WNW,290,6.0,7.0,-999,-99.99,,,-99.99,,2013-01-10 20:00:00,
2013-01-10 15:24:00,39.0,-99.9,30.53,WNW,290,6.0,7.0,-999,-99.99,,,-99.99,,2013-01-10 20:24:00,
2013-01-10 15:33:00,39.0,-99.9,30.53,WNW,290,6.0,7.0,-999,-99.99,,,-99.99,,2013-01-10 20:33:00,
2013-01-10 15:43:00,39.0,-99.9,30.53,WNW,290,6.0,7.0,-999,-99.99,,,-99.99,,2013-01-10 20:43:00,
2013-01-10 15:54:00,39.0,-99.9,30.53,WNW,290,6.0,7.0,-999,-99.99,,,-99.99,,2013-01-10 20:54:00,
2013-01-10 16:00:00,40.0,-99.9,30.52,NNW,340,2.0,2.0,-999,-99.99,,,-99.99,,2013-01-10 21:00:00,
2013-01-10 16:23:00,40.0,-99.9,30.52,NNW,340,2.0,2.0,-999,-99.99,,,-99.99,,2013-01-10 21:23:00,
2013-01-10 16:33:00,40.0,-99.9,30.52,NNW,340,2.0,2.0,-999,-99.99,,,-99.99,,2013-01-10 21:33:00,
2013-01-10 16:44:00,40.0,-99.9,30.52,NNW,340,2.0,2.0,-999,-99.99,,,-99.99,,2013-01-10 21:44:00,
2013-01-10 16:53:00,40.0,-99.9,30.52,NNW,340,2.0,2.0,-999,-99.99,,,-99.99,,2013-01-10 21:53:00,
2013-01-10 17:00:00,38.0,-99.9,30.51,North,0,0.0,2.0,-999,-99.99,,,-99.99,,2013-01-10 22:00:00,
2013-01-10 17:27:00,38.0,-99.9,30.51,North,0,0.0,2.0,-999,-99.99,,,-99.99,,2013-01-10 22:27:00,
2013-01-10 17:34:00,38.0,-99.9,30.51,North,0,0.0,2.0,-999,-99.99,,,-99.99,,2013-01-10 22:34:00,
2013-01-10 17:44:00,38.0,-99.9,30.51,North,0,0.0,2.0,-999,-99.99,,,-99.99,,2013-01-10 22:44:00,
2013-01-10 18:00:00,36.0,-99.9,30.51,SE,130,6.0,8.0,-999,-99.99,,,-99.99,,2013-01-10 23:00:00,
2013-01-10 18:23:00,36.0,-99.9,30.51,SE,130,6.0,8.0,-999,-99.99,,,-99.99,,2013-01-10 23:23:00,
2013-01-10 18:33:00,36.0,-99.9,30.51,SE,130,6.0,8.0,-999,-99.99,,,-99.99,,2013-01-10 23:33:00,
2013-01-10 18:43:00,36.0,-99.9,30.51,SE,130,6.0,8.0,-999,-99.99,,,-99.99,,2013-01-10 23:43:00,
2013-01-10 18:53:00,36.0,-99.9,30.51,SE,130,6.0,8.0,-999,-99.99,,,-99.99,,2013-01-10 23:53:00,
2013-01-10 19:00:00,37.0,-99.9,30.50,SE,130,5.0,6.0,-999,-99.99,,,-99.99,,2013-01-11 00:00:00,
2013-01-10 19:23:00,37.0,-99.9,30.50,SE,130,5.0,6.0,-999,-99.99,,,-99.99,,2013-01-11 00:23:00,
2013-01-10 19:33:00,37.0,-99.9,30.50,SE,130,5.0,6.0,-999,-99.99,,,-99.99,,2013-01-11 00:33:00,
2013-01-10 19:43:00,37.0,-99.9,30.50,SE,130,5.0,6.0,-999,-99.99,,,-99.99,,2013-01-11 00:43:00,
2013-01-10 19:53:00,37.0,-99.9,30.50,SE,130,5.0,6.0,-999,-99.99,,,-99.99,,2013-01-11 00:53:00,
2013-01-10 20:00:00,36.0,-99.9,30.50,East,90,1.0,5.0,-999,-99.99,,,-99.99,,2013-01-11 01:00:00,
2013-01-10 20:24:00,36.0,-99.9,30.50,East,90,1.0,5.0,-999,-99.99,,,-99.99,,2013-01-11 01:24:00,
2013-01-10 20:34:00,36.0,-99.9,30.50,East,90,1.0,5.0,-999,-99.99,,,-99.99,,2013-01-11 01:34:00,
2013-01-10 20:44:00,36.0,-99.9,30.50,East,90,1.0,5.0,-999,-99.99,,,-99.99,,2013-01-11 01:44:00,
2013-01-10 20:53:00,36.0,-99.9,30.50,East,90,1.0,5.0,-999,-99.99,,,-99.99,,2013-01-11 01:53:00,
2013-01-10 21:00:00,36.0,-99.9,30.47,East,90,5.0,7.0,-999,-99.99,,,-99.99,,2013-01-11 02:00:00,
2013-01-10 21:24:00,36.0,-99.9,30.47,East,90,5.0,7.0,-999,-99.99,,,-99.99,,2013-01-11 02:24:00,
2013-01-10 21:33:00,36.0,-99.9,30.47,East,90,5.0,7.0,-999,-99.99,,,-99.99,,2013-01-11 02:33:00,
2013-01-10 21:44:00,36.0,-99.9,30.47,East,90,5.0,7.0,-999,-99.99,,,-99.99,,2013-01-11 02:44:00,
2013-01-10 21:54:00,36.0,-99.9,30.47,East,90,5.0,7.0,-999,-99.99,,,-99.99,,2013-01-11 02:54:00,
2013-01-10 22:00:00,35.0,-99.9,30.45,East,90,3.0,6.0,-999,-99.99,,,-99.99,,2013-01-11 03:00:00,
2013-01-10 22:23:00,35.0,-99.9,30.45,East,90,3.0,6.0,-999,-99.99,,,-99.99,,2013-01-11 03:23:00,
2013-01-10 22:34:00,35.0,-99.9,30.45,East,90,3.0,6.0,-999,-99.99,,,-99.99,,2013-01-11 03:34:00,
2013-01-10 22:43:00,35.0,-99.9,30.45,East,90,3.0,6.0,-999,-99.99,,,-99.99,,2013-01-11 03:43:00,
2013-01-10 22:53:00,35.0,-99.9,30.45,East,90,3.0,6.0,-999,-99.99,,,-99.99,,2013-01-11 03:53:00,
2013-01-10 23:00:00,35.0,-99.9,30.42,East,100,3.0,8.0,-999,-99.99,,,-99.99,,2013-01-11 04:00:00,
2013-01-10 23:23:00,35.0,-99.9,30.42,East,100,3.0,8.0,-999,-99.99,,,-99.99,,2013-01-11 04:23:00,
2013-01-10 23:33:00,35.0,-99.9,30.42,East,100,3.0,8.0,-999,-99.99,,,-99.99,,2013-01-11 04:33:00,
2013-01-10 23:43:00,35.0,-99.9,30.42,East,100,3.0,8.0,-999,-99.99,,,-99.99,,2013-01-11 04:43:00,
2013-01-10 23:53:00,35.0,-99.9,30.42,East,100,3.0,8.0,-999,-99.99,,,-99.99,,2013-01-11 04:53:00,